{"data":{"norad_id":58241,"epoch":"2026-05-25T04:43:15.110688Z","epoch_age_seconds":54706,"freshness":"FRESH","line1":"1 58241U 23171M   26145.19670267  .00000610  00000+0  31707-4 0  9998","line2":"2 58241  42.9985 213.2831 0001498 269.5938  90.4742 15.27574684141453","mean_motion":15.27574684,"eccentricity":0.0001498,"inclination_deg":42.9985,"raan_deg":213.2831,"arg_perigee_deg":269.5938,"mean_anomaly_deg":90.4742,"bstar":3.1707e-5,"rev_number":14145,"period_min":94.267076764412,"perigee_km":482.03720604052,"apogee_km":484.09282216395,"semimajor_km":6861.2020141022,"source":"CELESTRAK","updated_at":"2026-05-25T13:38:18.581476Z"}}